AFR601 SOCA-TFFF

Flight info

Callsign AFR601
Flight time 1h 57m
Altitude 36000
Route SILAT1A SILAT UA247 BUXEX UA555 BGI DCT BORUS BORUS2X
Aircraft A320/M-SDE2E3FGIJ1RWY/HB1

Departure

Time 2026-05-06 11:46
Airport Cayenne – Félix Eboué Airport (SOCA)

Arrival

Time 2026-05-06 13:44
Airport Martinique Aimé Césaire International Airport (TFFF)
Time Latitude Longitude Altitude Speed Heading
2026-05-06 10:59 4.82208 -52.36265 34 ft 0 kts 305°
2026-05-06 11:32 4.82208 -52.36264 34 ft 0 kts 305°
2026-05-06 11:37 4.82207 -52.36263 34 ft 1 kts 305°
2026-05-06 11:37 4.82198 -52.36251 34 ft 2 kts 304°
2026-05-06 11:37 4.82189 -52.36239 34 ft 2 kts 305°
2026-05-06 11:38 4.82181 -52.36226 34 ft 2 kts 304°
2026-05-06 11:38 4.82172 -52.36214 34 ft 2 kts 305°
2026-05-06 11:38 4.82164 -52.36202 34 ft 1 kts 304°
2026-05-06 11:38 4.82158 -52.36194 34 ft 2 kts 296°
2026-05-06 11:39 4.82155 -52.36179 34 ft 2 kts 266°
2026-05-06 11:39 4.82157 -52.36168 34 ft 0 kts 247°
2026-05-06 11:39 4.82160 -52.36161 34 ft 0 kts 244°
2026-05-06 11:41 4.82159 -52.36165 34 ft 1 kts 246°
2026-05-06 11:41 4.82153 -52.36177 34 ft 3 kts 246°
2026-05-06 11:41 4.82139 -52.36206 34 ft 6 kts 240°
2026-05-06 11:41 4.82112 -52.36250 34 ft 7 kts 233°
2026-05-06 11:42 4.82058 -52.36251 33 ft 9 kts 158°
2026-05-06 11:42 4.81996 -52.36225 33 ft 10 kts 157°
2026-05-06 11:42 4.81942 -52.36251 33 ft 10 kts 239°
2026-05-06 11:42 4.81906 -52.36327 33 ft 13 kts 245°
2026-05-06 11:43 4.81862 -52.36423 32 ft 16 kts 245°
2026-05-06 11:43 4.81811 -52.36536 32 ft 18 kts 245°
2026-05-06 11:43 4.81752 -52.36662 31 ft 21 kts 245°
2026-05-06 11:44 4.81620 -52.36948 31 ft 23 kts 245°
2026-05-06 11:44 4.81553 -52.37093 32 ft 22 kts 245°
2026-05-06 11:44 4.81489 -52.37233 33 ft 21 kts 245°
2026-05-06 11:44 4.81448 -52.37362 35 ft 14 kts 277°
2026-05-06 11:45 4.81443 -52.37413 36 ft 6 kts 201°
2026-05-06 11:45 4.81419 -52.37394 36 ft 6 kts 85°
2026-05-06 11:45 4.81427 -52.37369 35 ft 1 kts 67°
2026-05-06 11:45 4.81472 -52.37268 34 ft 47 kts 65°
2026-05-06 11:46 4.81715 -52.36744 31 ft 117 kts 66°
2026-05-06 11:46 4.82147 -52.35806 66 ft 171 kts 65°
2026-05-06 11:46 4.82566 -52.34705 773 ft 170 kts 75°
2026-05-06 11:46 4.82795 -52.33584 1607 ft 162 kts 77°
2026-05-06 11:47 4.83003 -52.32514 2206 ft 158 kts 77°
2026-05-06 11:47 4.83256 -52.31447 2737 ft 158 kts 74°
2026-05-06 11:47 4.83548 -52.30387 3261 ft 160 kts 73°
2026-05-06 11:47 4.83889 -52.29227 3440 ft 185 kts 73°
2026-05-06 11:48 4.84284 -52.27941 3703 ft 206 kts 73°
2026-05-06 11:48 4.84727 -52.26462 3878 ft 233 kts 73°
2026-05-06 11:48 4.85174 -52.24893 4552 ft 238 kts 74°
2026-05-06 11:48 4.85628 -52.23300 5253 ft 241 kts 74°
2026-05-06 11:49 4.86089 -52.21678 5954 ft 244 kts 73°
2026-05-06 11:49 4.86885 -52.20181 6664 ft 249 kts 49°
2026-05-06 11:49 4.88296 -52.19169 7341 ft 258 kts 25°
2026-05-06 11:49 4.90099 -52.18887 8018 ft 271 kts 359°
2026-05-06 11:50 4.91935 -52.19444 8657 ft 283 kts 340°
2026-05-06 11:50 4.93732 -52.20284 9255 ft 288 kts 340°
2026-05-06 11:50 4.95541 -52.21115 9908 ft 289 kts 341°
2026-05-06 11:50 4.97394 -52.21939 10496 ft 294 kts 341°
2026-05-06 11:51 4.99275 -52.22768 11102 ft 297 kts 341°
2026-05-06 11:51 5.01191 -52.23616 11713 ft 300 kts 341°
2026-05-06 11:51 5.03111 -52.24466 12306 ft 302 kts 341°
2026-05-06 11:51 5.05024 -52.25316 12881 ft 304 kts 341°
2026-05-06 11:52 5.06980 -52.26184 13447 ft 307 kts 340°
2026-05-06 11:52 5.08932 -52.27061 13987 ft 310 kts 338°
2026-05-06 11:52 5.10834 -52.28095 14527 ft 314 kts 332°
2026-05-06 11:52 5.12685 -52.29345 14855 ft 325 kts 327°
2026-05-06 11:53 5.14544 -52.30714 15079 ft 338 kts 326°
2026-05-06 11:53 5.16469 -52.32151 15296 ft 351 kts 326°
2026-05-06 11:53 5.18466 -52.33641 15505 ft 363 kts 326°
2026-05-06 11:53 5.20527 -52.35176 15704 ft 375 kts 326°
2026-05-06 11:54 5.22659 -52.36761 15916 ft 385 kts 326°
2026-05-06 11:54 5.24830 -52.38373 16277 ft 389 kts 326°
2026-05-06 11:54 5.27013 -52.39994 16731 ft 391 kts 326°
2026-05-06 11:54 5.29181 -52.41602 17172 ft 391 kts 325°
2026-05-06 11:55 5.31380 -52.43233 17613 ft 392 kts 325°
2026-05-06 11:55 5.33579 -52.44865 18015 ft 394 kts 325°
2026-05-06 11:55 5.35796 -52.46511 18395 ft 396 kts 325°
2026-05-06 11:55 5.38017 -52.48159 18765 ft 398 kts 325°
2026-05-06 11:56 5.40255 -52.49820 19124 ft 400 kts 324°
2026-05-06 11:56 5.42501 -52.51485 19475 ft 403 kts 324°
2026-05-06 11:56 5.44728 -52.53227 19810 ft 405 kts 321°
2026-05-06 11:56 5.46823 -52.55114 20140 ft 408 kts 316°
2026-05-06 11:57 5.48815 -52.57191 20467 ft 411 kts 312°
2026-05-06 11:57 5.50710 -52.59312 20799 ft 412 kts 311°
2026-05-06 11:57 5.52618 -52.61470 21124 ft 414 kts 311°
2026-05-06 11:57 5.54547 -52.63654 21471 ft 416 kts 311°
2026-05-06 11:58 5.56449 -52.65805 21803 ft 417 kts 311°
2026-05-06 11:58 5.58391 -52.68000 22123 ft 418 kts 310°
2026-05-06 11:58 5.60324 -52.70183 22432 ft 420 kts 311°
2026-05-06 11:58 5.62286 -52.72399 22736 ft 422 kts 310°
2026-05-06 11:59 5.64248 -52.74614 23009 ft 425 kts 310°
2026-05-06 11:59 5.66202 -52.76821 23282 ft 427 kts 310°
2026-05-06 11:59 5.68174 -52.79046 23562 ft 429 kts 310°
2026-05-06 11:59 5.70188 -52.81316 23838 ft 432 kts 310°
2026-05-06 12:00 5.72184 -52.83569 24114 ft 434 kts 310°
2026-05-06 12:00 5.74196 -52.85840 24391 ft 436 kts 310°
2026-05-06 12:00 5.76210 -52.88112 24644 ft 438 kts 310°
2026-05-06 12:00 5.78234 -52.90400 24894 ft 441 kts 310°
2026-05-06 12:01 5.80270 -52.92699 25149 ft 443 kts 310°
2026-05-06 12:01 5.82340 -52.95036 25404 ft 445 kts 310°
2026-05-06 12:01 5.84399 -52.97362 25651 ft 447 kts 310°
2026-05-06 12:01 5.86468 -52.99699 25901 ft 449 kts 310°
2026-05-06 12:02 5.88525 -53.02021 26138 ft 451 kts 310°
2026-05-06 12:02 5.90612 -53.04379 26370 ft 453 kts 310°
2026-05-06 12:02 5.92710 -53.06749 26591 ft 455 kts 310°
2026-05-06 12:02 5.94818 -53.09129 26812 ft 457 kts 310°
2026-05-06 12:03 5.96963 -53.11552 27044 ft 459 kts 310°
2026-05-06 12:03 5.99087 -53.13953 27287 ft 461 kts 310°
2026-05-06 12:03 6.01193 -53.16334 27511 ft 462 kts 310°
2026-05-06 12:03 6.03352 -53.18777 27727 ft 464 kts 310°
2026-05-06 12:04 6.05496 -53.21200 27945 ft 466 kts 309°
2026-05-06 12:04 6.07646 -53.23632 28156 ft 468 kts 309°
2026-05-06 12:04 6.09830 -53.26102 28369 ft 469 kts 309°
2026-05-06 12:04 6.11983 -53.28537 28565 ft 471 kts 309°
2026-05-06 12:05 6.14175 -53.31016 28767 ft 472 kts 309°
2026-05-06 12:05 6.16343 -53.33469 28974 ft 474 kts 309°
2026-05-06 12:05 6.18549 -53.35966 29179 ft 475 kts 309°
2026-05-06 12:05 6.20753 -53.38461 29373 ft 476 kts 309°
2026-05-06 12:06 6.22943 -53.40941 29554 ft 478 kts 309°
2026-05-06 12:06 6.25162 -53.43454 29763 ft 478 kts 309°
2026-05-06 12:06 6.27355 -53.45937 30030 ft 477 kts 309°
2026-05-06 12:06 6.29576 -53.48452 30325 ft 476 kts 309°
2026-05-06 12:07 6.31750 -53.50914 30593 ft 475 kts 309°
2026-05-06 12:07 6.33933 -53.53386 30845 ft 475 kts 309°
2026-05-06 12:07 6.36148 -53.55895 31082 ft 475 kts 309°
2026-05-06 12:07 6.38341 -53.58379 31326 ft 475 kts 309°
2026-05-06 12:08 6.40534 -53.60864 31592 ft 474 kts 309°
2026-05-06 12:08 6.42697 -53.63315 31868 ft 473 kts 309°
2026-05-06 12:08 6.44897 -53.65808 32150 ft 472 kts 309°
2026-05-06 12:08 6.47053 -53.68252 32425 ft 471 kts 309°
2026-05-06 12:09 6.49238 -53.70730 32705 ft 469 kts 309°
2026-05-06 12:09 6.51388 -53.73169 33013 ft 468 kts 309°
2026-05-06 12:09 6.53534 -53.75603 33333 ft 466 kts 309°
2026-05-06 12:09 6.55688 -53.78047 33664 ft 464 kts 309°
2026-05-06 12:10 6.57836 -53.80485 33973 ft 462 kts 309°
2026-05-06 12:10 6.59945 -53.82877 34266 ft 460 kts 309°
2026-05-06 12:10 6.62085 -53.85308 34521 ft 459 kts 309°
2026-05-06 12:10 6.64189 -53.87699 34725 ft 459 kts 309°
2026-05-06 12:11 6.66303 -53.90102 34906 ft 460 kts 309°
2026-05-06 12:11 6.68425 -53.92513 35071 ft 460 kts 309°
2026-05-06 12:11 6.70547 -53.94923 35228 ft 460 kts 309°
2026-05-06 12:11 6.72665 -53.97321 35387 ft 461 kts 310°
2026-05-06 12:12 6.74880 -53.99648 35538 ft 462 kts 313°
2026-05-06 12:12 6.77250 -54.01872 35689 ft 463 kts 316°
2026-05-06 12:12 6.79690 -54.03970 35828 ft 463 kts 317°
2026-05-06 12:12 6.82160 -54.06059 35974 ft 463 kts 317°
2026-05-06 12:13 6.87094 -54.10223 36042 ft 463 kts 317°
2026-05-06 12:13 6.92038 -54.14404 36038 ft 463 kts 317°
2026-05-06 12:14 6.96946 -54.18562 36030 ft 463 kts 317°
2026-05-06 12:14 7.01911 -54.22772 36028 ft 464 kts 317°
2026-05-06 12:15 7.06839 -54.26952 36027 ft 464 kts 317°
2026-05-06 12:15 7.11763 -54.31129 36027 ft 464 kts 317°
2026-05-06 12:16 7.16701 -54.35318 36027 ft 464 kts 317°
2026-05-06 12:16 7.21673 -54.39539 36027 ft 464 kts 317°
2026-05-06 12:17 7.26594 -54.43719 36027 ft 464 kts 317°
2026-05-06 12:17 7.31547 -54.47925 36027 ft 464 kts 317°
2026-05-06 12:18 7.36464 -54.52104 36028 ft 463 kts 317°
2026-05-06 12:18 7.41400 -54.56298 36028 ft 464 kts 317°
2026-05-06 12:19 7.46344 -54.60503 36028 ft 464 kts 317°
2026-05-06 12:19 7.51250 -54.64675 36028 ft 464 kts 318°
2026-05-06 12:20 7.56194 -54.68881 36029 ft 464 kts 317°
2026-05-06 12:20 7.61141 -54.73090 36028 ft 463 kts 317°
2026-05-06 12:21 7.66065 -54.77282 36029 ft 463 kts 317°
2026-05-06 12:21 7.70970 -54.81459 36029 ft 463 kts 317°
2026-05-06 12:22 7.75894 -54.85653 36029 ft 463 kts 317°
2026-05-06 12:22 7.80813 -54.89844 36030 ft 463 kts 317°
2026-05-06 12:23 7.85747 -54.94050 36030 ft 463 kts 318°
2026-05-06 12:23 7.90639 -54.98223 36029 ft 463 kts 318°
2026-05-06 12:24 7.95571 -55.02429 36028 ft 463 kts 318°
2026-05-06 12:24 8.00481 -55.06615 36027 ft 463 kts 318°
2026-05-06 12:25 8.05402 -55.10815 36026 ft 463 kts 318°
2026-05-06 12:25 8.10339 -55.15030 36028 ft 464 kts 318°
2026-05-06 12:26 8.15256 -55.19229 36030 ft 464 kts 317°
2026-05-06 12:26 8.20214 -55.23465 36029 ft 464 kts 318°
2026-05-06 12:27 8.25135 -55.27670 36028 ft 464 kts 317°
2026-05-06 12:27 8.30063 -55.31882 36031 ft 464 kts 317°
2026-05-06 12:28 8.35004 -55.36106 36034 ft 464 kts 317°
2026-05-06 12:28 8.39937 -55.40325 36034 ft 464 kts 317°
2026-05-06 12:29 8.44863 -55.44540 36036 ft 464 kts 317°
2026-05-06 12:29 8.49775 -55.48743 36037 ft 465 kts 317°
2026-05-06 12:30 8.54701 -55.52962 36039 ft 465 kts 317°
2026-05-06 12:30 8.59645 -55.57200 36039 ft 465 kts 317°
2026-05-06 12:31 8.64569 -55.61420 36040 ft 465 kts 317°
2026-05-06 12:31 8.69517 -55.65660 36042 ft 465 kts 317°
2026-05-06 12:32 8.74462 -55.69902 36042 ft 464 kts 317°
2026-05-06 12:32 8.79364 -55.74108 36042 ft 464 kts 317°
2026-05-06 12:33 8.84298 -55.78343 36043 ft 464 kts 317°
2026-05-06 12:33 8.89224 -55.82571 36046 ft 464 kts 317°
2026-05-06 12:34 8.94153 -55.86806 36047 ft 464 kts 317°
2026-05-06 12:34 8.99058 -55.91024 36047 ft 464 kts 317°
2026-05-06 12:35 9.03989 -55.95267 36047 ft 464 kts 317°
2026-05-06 12:35 9.08898 -55.99486 36047 ft 463 kts 318°
2026-05-06 12:36 9.13829 -56.03717 36047 ft 463 kts 317°
2026-05-06 12:36 9.18740 -56.07939 36049 ft 463 kts 317°
2026-05-06 12:37 9.23632 -56.12147 36046 ft 462 kts 317°
2026-05-06 12:37 9.28542 -56.16376 36046 ft 462 kts 317°
2026-05-06 12:38 9.33162 -56.20357 36048 ft 462 kts 317°
2026-05-06 12:38 9.37752 -56.24311 36046 ft 462 kts 317°
2026-05-06 12:39 9.42624 -56.28512 36047 ft 462 kts 317°
2026-05-06 12:39 9.47515 -56.32730 36047 ft 462 kts 317°
2026-05-06 12:40 9.52434 -56.36973 36046 ft 462 kts 317°
2026-05-06 12:40 9.57328 -56.41197 36046 ft 462 kts 317°
2026-05-06 12:41 9.62208 -56.45412 36047 ft 462 kts 317°
2026-05-06 12:41 9.67104 -56.49641 36046 ft 461 kts 317°
2026-05-06 12:42 9.71985 -56.53859 36047 ft 460 kts 317°
2026-05-06 12:42 9.76859 -56.58073 36047 ft 459 kts 318°
2026-05-06 12:43 9.81711 -56.62268 36046 ft 457 kts 318°
2026-05-06 12:43 9.86552 -56.66463 36046 ft 459 kts 318°
2026-05-06 12:44 9.91415 -56.70672 36047 ft 460 kts 319°
2026-05-06 12:44 9.96293 -56.74891 36048 ft 460 kts 318°
2026-05-06 12:45 10.01129 -56.79076 36048 ft 459 kts 318°
2026-05-06 12:46 10.08431 -56.85407 36048 ft 459 kts 318°
2026-05-06 12:46 10.13287 -56.89616 36046 ft 460 kts 318°
2026-05-06 12:47 10.18162 -56.93844 36047 ft 461 kts 318°
2026-05-06 12:47 10.23053 -56.98090 36047 ft 461 kts 318°
2026-05-06 12:48 10.27910 -57.02307 36048 ft 461 kts 318°
2026-05-06 12:48 10.32791 -57.06546 36048 ft 460 kts 318°
2026-05-06 12:49 10.37654 -57.10774 36048 ft 460 kts 318°
2026-05-06 12:49 10.42516 -57.14998 36048 ft 460 kts 318°
2026-05-06 12:50 10.47383 -57.19231 36049 ft 461 kts 318°
2026-05-06 12:50 10.52253 -57.23469 36048 ft 460 kts 318°
2026-05-06 12:51 10.57109 -57.27697 36049 ft 460 kts 318°
2026-05-06 12:51 10.61951 -57.31911 36049 ft 460 kts 318°
2026-05-06 12:52 10.66803 -57.36139 36049 ft 460 kts 318°
2026-05-06 12:52 10.71686 -57.40393 36048 ft 460 kts 318°
2026-05-06 12:53 10.76533 -57.44621 36049 ft 460 kts 318°
2026-05-06 12:53 10.81396 -57.48862 36048 ft 459 kts 318°
2026-05-06 12:54 10.86248 -57.53097 36050 ft 459 kts 318°
2026-05-06 12:54 10.91085 -57.57320 36049 ft 459 kts 319°
2026-05-06 12:55 10.95945 -57.61563 36050 ft 458 kts 318°
2026-05-06 12:55 11.00762 -57.65773 36048 ft 458 kts 318°
2026-05-06 12:56 11.05608 -57.70012 36050 ft 458 kts 319°
2026-05-06 12:56 11.10426 -57.74227 36046 ft 458 kts 318°
2026-05-06 12:57 11.15262 -57.78458 36050 ft 458 kts 319°
2026-05-06 12:57 11.20092 -57.82685 36054 ft 458 kts 318°
2026-05-06 12:58 11.24942 -57.86932 36048 ft 457 kts 318°
2026-05-06 12:58 11.29747 -57.91142 36050 ft 456 kts 318°
2026-05-06 12:59 11.34572 -57.95374 36055 ft 456 kts 319°
2026-05-06 12:59 11.39358 -57.99573 36055 ft 456 kts 319°
2026-05-06 13:00 11.44197 -58.03818 36054 ft 456 kts 319°
2026-05-06 13:00 11.48998 -58.08032 36056 ft 456 kts 319°
2026-05-06 13:01 11.53808 -58.12257 36055 ft 456 kts 319°
2026-05-06 13:01 11.58604 -58.16471 36054 ft 456 kts 319°
2026-05-06 13:02 11.63437 -58.20718 36054 ft 456 kts 319°
2026-05-06 13:02 11.68226 -58.24931 36054 ft 456 kts 319°
2026-05-06 13:03 11.73041 -58.29167 36057 ft 456 kts 318°
2026-05-06 13:03 11.77837 -58.33392 36055 ft 457 kts 319°
2026-05-06 13:04 11.82663 -58.37643 36057 ft 457 kts 319°
2026-05-06 13:04 11.87449 -58.41860 36058 ft 456 kts 319°
2026-05-06 13:05 11.92261 -58.46101 36056 ft 456 kts 319°
2026-05-06 13:05 11.97056 -58.50332 36054 ft 456 kts 319°
2026-05-06 13:06 12.01876 -58.54585 36058 ft 456 kts 319°
2026-05-06 13:06 12.06660 -58.58809 36056 ft 456 kts 319°
2026-05-06 13:07 12.11493 -58.63078 36054 ft 457 kts 319°
2026-05-06 13:07 12.16303 -58.67330 36056 ft 457 kts 318°
2026-05-06 13:08 12.21107 -58.71578 36055 ft 457 kts 318°
2026-05-06 13:08 12.25911 -58.75829 36056 ft 457 kts 318°
2026-05-06 13:09 12.30720 -58.80085 36057 ft 457 kts 318°
2026-05-06 13:09 12.35494 -58.84311 36059 ft 457 kts 318°
2026-05-06 13:10 12.40304 -58.88573 36058 ft 457 kts 318°
2026-05-06 13:10 12.45117 -58.92841 36059 ft 457 kts 318°
2026-05-06 13:11 12.49916 -58.97097 36059 ft 457 kts 318°
2026-05-06 13:11 12.54729 -59.01369 36060 ft 457 kts 318°
2026-05-06 13:12 12.59508 -59.05613 36062 ft 457 kts 318°
2026-05-06 13:12 12.64324 -59.09891 36061 ft 457 kts 318°
2026-05-06 13:13 12.69116 -59.14149 36061 ft 457 kts 318°
2026-05-06 13:13 12.73917 -59.18418 36062 ft 457 kts 318°
2026-05-06 13:14 12.78723 -59.22694 36064 ft 457 kts 318°
2026-05-06 13:14 12.83504 -59.26952 36064 ft 457 kts 318°
2026-05-06 13:15 12.88315 -59.31240 36066 ft 456 kts 318°
2026-05-06 13:15 12.93078 -59.35486 36067 ft 456 kts 318°
2026-05-06 13:16 12.97889 -59.39777 36069 ft 457 kts 318°
2026-05-06 13:16 13.02660 -59.44038 36070 ft 457 kts 318°
2026-05-06 13:17 13.07448 -59.48343 36070 ft 456 kts 316°
2026-05-06 13:17 13.12023 -59.52876 36071 ft 456 kts 315°
2026-05-06 13:18 13.16559 -59.57446 36073 ft 456 kts 315°
2026-05-06 13:18 13.21063 -59.61988 36072 ft 456 kts 315°
2026-05-06 13:19 13.25582 -59.66543 36072 ft 456 kts 315°
2026-05-06 13:19 13.30119 -59.71118 36073 ft 456 kts 315°
2026-05-06 13:20 13.34618 -59.75656 36074 ft 456 kts 315°
2026-05-06 13:20 13.39144 -59.80225 36075 ft 456 kts 315°
2026-05-06 13:21 13.43676 -59.84802 36075 ft 456 kts 315°
2026-05-06 13:21 13.48207 -59.89381 36076 ft 456 kts 314°
2026-05-06 13:22 13.52716 -59.93941 36077 ft 456 kts 315°
2026-05-06 13:22 13.57213 -59.98490 36046 ft 453 kts 315°
2026-05-06 13:22 13.59450 -60.00755 35602 ft 451 kts 314°
2026-05-06 13:23 13.61706 -60.03039 34627 ft 455 kts 314°
2026-05-06 13:23 13.63970 -60.05331 33486 ft 461 kts 314°
2026-05-06 13:23 13.66258 -60.07650 32382 ft 466 kts 314°
2026-05-06 13:23 13.68572 -60.09994 31408 ft 470 kts 314°
2026-05-06 13:24 13.70893 -60.12345 30449 ft 473 kts 314°
2026-05-06 13:24 13.73224 -60.14707 29485 ft 475 kts 314°
2026-05-06 13:24 13.75569 -60.17085 28651 ft 473 kts 314°
2026-05-06 13:24 13.77886 -60.19436 27966 ft 468 kts 314°
2026-05-06 13:25 13.80205 -60.21792 27277 ft 463 kts 314°
2026-05-06 13:25 13.82463 -60.24086 26586 ft 458 kts 314°
2026-05-06 13:25 13.84733 -60.26393 25892 ft 454 kts 314°
2026-05-06 13:25 13.86948 -60.28645 25229 ft 450 kts 314°
2026-05-06 13:26 13.89169 -60.30904 24562 ft 446 kts 315°
2026-05-06 13:26 13.91367 -60.33140 23894 ft 442 kts 315°
2026-05-06 13:26 13.93552 -60.35363 23246 ft 438 kts 315°
2026-05-06 13:26 13.95712 -60.37562 22619 ft 434 kts 315°
2026-05-06 13:27 13.97827 -60.39716 22022 ft 431 kts 315°
2026-05-06 13:27 13.99950 -60.41877 21462 ft 426 kts 315°
2026-05-06 13:27 14.02058 -60.44022 20897 ft 422 kts 315°
2026-05-06 13:27 14.03995 -60.46223 20333 ft 419 kts 309°
2026-05-06 13:28 14.05676 -60.48667 19769 ft 416 kts 302°
2026-05-06 13:28 14.07100 -60.51230 19214 ft 413 kts 300°
2026-05-06 13:28 14.08463 -60.53812 18648 ft 410 kts 300°
2026-05-06 13:28 14.09823 -60.56412 18073 ft 407 kts 300°
2026-05-06 13:29 14.11158 -60.58963 17330 ft 410 kts 300°
2026-05-06 13:29 14.12522 -60.61558 16444 ft 414 kts 300°
2026-05-06 13:29 14.13883 -60.64139 15785 ft 412 kts 300°
2026-05-06 13:29 14.15247 -60.66728 15185 ft 408 kts 300°
2026-05-06 13:30 14.16587 -60.69271 14551 ft 406 kts 300°
2026-05-06 13:30 14.17932 -60.71822 13820 ft 406 kts 300°
2026-05-06 13:30 14.19274 -60.74370 13099 ft 406 kts 300°
2026-05-06 13:30 14.20633 -60.76947 12381 ft 405 kts 300°
2026-05-06 13:31 14.21968 -60.79474 11660 ft 404 kts 300°
2026-05-06 13:31 14.23300 -60.82001 10953 ft 402 kts 300°
2026-05-06 13:31 14.24631 -60.84526 10239 ft 400 kts 300°
2026-05-06 13:31 14.25944 -60.87020 9529 ft 399 kts 299°
2026-05-06 13:32 14.27262 -60.89526 8812 ft 397 kts 299°
2026-05-06 13:32 14.28577 -60.92030 8097 ft 395 kts 299°
2026-05-06 13:32 14.29866 -60.94481 7387 ft 393 kts 299°
2026-05-06 13:32 14.31175 -60.96974 6698 ft 391 kts 299°
2026-05-06 13:33 14.32435 -60.99376 6261 ft 381 kts 299°
2026-05-06 13:33 14.33672 -61.01734 6097 ft 363 kts 299°
2026-05-06 13:33 14.34836 -61.03955 6091 ft 342 kts 299°
2026-05-06 13:33 14.35939 -61.06059 6089 ft 324 kts 299°
2026-05-06 13:34 14.36978 -61.08041 6085 ft 306 kts 299°
2026-05-06 13:34 14.37971 -61.09936 6085 ft 293 kts 299°
2026-05-06 13:34 14.38943 -61.11791 6088 ft 292 kts 299°
2026-05-06 13:34 14.39903 -61.13620 6088 ft 293 kts 299°
2026-05-06 13:35 14.40875 -61.15472 6087 ft 293 kts 299°
2026-05-06 13:35 14.41851 -61.17335 6086 ft 293 kts 299°
2026-05-06 13:35 14.42819 -61.19181 6088 ft 293 kts 299°
2026-05-06 13:35 14.43785 -61.21023 6090 ft 293 kts 299°
2026-05-06 13:36 14.44784 -61.22862 6086 ft 293 kts 305°
2026-05-06 13:36 14.46254 -61.24275 6073 ft 286 kts 335°
2026-05-06 13:36 14.48038 -61.25051 5954 ft 276 kts 342°
2026-05-06 13:36 14.49821 -61.25732 5588 ft 268 kts 342°
2026-05-06 13:37 14.51554 -61.26402 5111 ft 263 kts 342°
2026-05-06 13:37 14.53254 -61.27035 4635 ft 256 kts 352°
2026-05-06 13:37 14.54958 -61.26978 4330 ft 237 kts 24°
2026-05-06 13:37 14.56276 -61.26070 4107 ft 222 kts 56°
2026-05-06 13:38 14.56841 -61.24663 3894 ft 211 kts 88°
2026-05-06 13:38 14.56746 -61.23193 3703 ft 205 kts 98°
2026-05-06 13:38 14.56520 -61.21758 3489 ft 201 kts 99°
2026-05-06 13:38 14.56283 -61.20356 3277 ft 197 kts 98°
2026-05-06 13:39 14.56142 -61.18972 3061 ft 193 kts 90°
2026-05-06 13:39 14.56203 -61.17593 2859 ft 188 kts 84°
2026-05-06 13:39 14.56374 -61.16311 2721 ft 177 kts 82°
2026-05-06 13:39 14.56579 -61.15071 2486 ft 171 kts 81°
2026-05-06 13:40 14.56784 -61.13888 2271 ft 162 kts 81°
2026-05-06 13:40 14.56972 -61.12801 2054 ft 149 kts 81°
2026-05-06 13:40 14.57152 -61.11750 1856 ft 147 kts 81°
2026-05-06 13:40 14.57324 -61.10744 1661 ft 135 kts 81°
2026-05-06 13:41 14.57486 -61.09821 1489 ft 128 kts 79°
2026-05-06 13:41 14.57641 -61.08917 1328 ft 128 kts 81°
2026-05-06 13:41 14.57799 -61.08016 1173 ft 127 kts 79°
2026-05-06 13:41 14.57951 -61.07113 994 ft 127 kts 83°
2026-05-06 13:42 14.58083 -61.06209 827 ft 127 kts 79°
2026-05-06 13:42 14.58255 -61.05315 700 ft 128 kts 82°
2026-05-06 13:42 14.58400 -61.04423 535 ft 127 kts 79°
2026-05-06 13:42 14.58559 -61.03520 383 ft 126 kts 81°
2026-05-06 13:43 14.58709 -61.02631 213 ft 126 kts 79°
2026-05-06 13:43 14.58862 -61.01739 57 ft 126 kts 80°
2026-05-06 13:43 14.58996 -61.00956 33 ft 88 kts 80°
2026-05-06 13:43 14.59077 -61.00483 32 ft 53 kts 81°
2026-05-06 13:44 14.59134 -61.00149 33 ft 37 kts 81°
2026-05-06 13:44 14.59185 -61.00015 33 ft 12 kts
2026-05-06 13:44 14.59272 -61.00029 33 ft 12 kts 350°
2026-05-06 13:44 14.59355 -61.00047 33 ft 10 kts 326°
2026-05-06 13:45 14.59392 -61.00118 33 ft 11 kts 290°
2026-05-06 13:45 14.59473 -61.00196 33 ft 6 kts 42°
2026-05-06 13:45 14.59503 -61.00163 33 ft 6 kts 49°
2026-05-06 13:46 14.59519 -61.00145 33 ft 0 kts 48°
2026-05-06 13:46 14.59521 -61.00142 33 ft 0 kts 48°